PROBA-1 1 26958U 01049B 26124.59087187 .00001407 00000+0 94926-4 0 9999 2 26958 97.9609 131.6047 0053388 270.4617 89.0492 15.07333277337056 CUTE-1 (CO-55) 1 27844U 03031E 26124.55324600 .00000294 00000+0 14620-3 0 9992 2 27844 98.6751 133.6595 0008671 318.0554 41.9960 14.24308442185468 CUBESAT XI-IV (CO-57) 1 27848U 03031J 26124.44959604 .00000228 00000+0 11926-3 0 9995 2 27848 98.6784 133.3051 0008917 338.3156 21.7644 14.23597038185159 APRIZESAT 4 1 35684U 09041D 26124.15576772 .00000794 00000+0 10114-3 0 9994 2 35684 98.1419 198.5993 0044683 104.1356 256.4829 14.83813802904837 APRIZESAT 3 1 35686U 09041F 26124.36023063 .00002330 00000+0 20553-3 0 9995 2 35686 98.2006 275.5029 0061250 210.5705 149.1940 14.96090270909823 PROBA-2 1 36037U 09059B 26124.49896044 .00000184 00000+0 53327-4 0 9997 2 36037 98.2449 308.4583 0014354 58.8945 301.3659 14.54843742875171 APRIZESAT 5 1 37792U 11044E 26124.29496164 .00000824 00000+0 11130-3 0 9996 2 37792 98.2442 56.0998 0053064 142.8557 217.6345 14.80984986792290 APRIZESAT 6 1 37793U 11044F 26124.32236781 .00000618 00000+0 94740-4 0 9998 2 37793 98.2387 33.9231 0042127 225.1211 251.4547 14.76855885790673 PROBA-V 1 39159U 13021A 26124.54245246 .00000071 00000+0 49071-4 0 9993 2 39159 98.3566 105.3101 0002954 258.1989 101.8860 14.23587595674908 APRIZESAT 7 1 39416U 13066A 26124.61422817 .00001722 00000+0 17583-3 0 9993 2 39416 97.7679 78.4720 0035862 358.4152 1.6947 14.91461841674733 APRIZESAT 8 1 39425U 13066K 26123.81493697 .00001275 00000+0 14373-3 0 9995 2 39425 97.8194 71.9140 0047466 72.4867 288.1528 14.87555984673079 BUGSAT-1 (TITA) 1 40014U 14033E 26124.58651883 .00005193 00000+0 27840-3 0 9990 2 40014 98.0412 214.6054 0027570 332.0703 27.9046 15.15149901649234 SAUDISAT 4 1 40016U 14033G 26124.36129245 .00000733 00000+0 10342-3 0 9994 2 40016 97.7524 272.0279 0044041 214.4833 145.3521 14.79479169639594 APRIZESAT 9 1 40018U 14033J 26124.63176532 .00000507 00000+0 82081-4 0 9996 2 40018 97.8995 258.9109 0065682 341.5026 18.3795 14.74164604637145 APRIZESAT 10 1 40019U 14033K 26124.31671415 .00000487 00000+0 84010-4 0 9993 2 40019 97.9585 252.2719 0079924 54.5285 306.3347 14.70844178635809 TECHDEMOSAT-1 (TDS-1) 1 40076U 14037H 26124.50772588 .00009344 00000+0 53867-3 0 9990 2 40076 98.3815 112.4211 0007835 64.2287 295.9749 15.12615908641629 TECHNOSAT 1 42829U 17042E 26124.49535021 .00003177 00000+0 22935-3 0 9994 2 42829 97.4247 283.8372 0016066 239.7508 120.2129 15.04695497480139 FLYING LAPTOP 1 42831U 17042G 26124.58700199 .00003317 00000+0 26450-3 0 9999 2 42831 97.4495 281.8582 0017717 272.7296 87.1900 15.00865442479910 HAWK-A 1 43765U 18099H 26124.56406987 .00007965 00000+0 32464-3 0 9990 2 43765 97.3944 177.3790 0036849 80.0731 280.4662 15.24091776406455 HAWK-B 1 43794U 18099AN 26124.59981175 .00006877 00000+0 29672-3 0 9990 2 43794 97.3992 176.9193 0034121 96.7798 263.7323 15.22311916406402 HAWK-C 1 43799U 18099AT 26124.57224561 .00009491 00000+0 34674-3 0 9995 2 43799 97.3916 178.0885 0042673 80.7347 279.8715 15.27438518407258 SALSAT 1 46495U 20068K 26124.50762342 .00008113 00000+0 28903-3 0 9995 2 46495 97.8860 124.9371 0011725 95.9608 264.2968 15.29157477308688 HAWK-2C 1 47502U 21006CT 26124.06685734 .00006850 00000+0 20956-3 0 9994 2 47502 97.2310 169.2660 0006842 14.8273 345.3169 15.34136328292737 HAWK-2A 1 47505U 21006CW 26124.39587399 .00006250 00000+0 19135-3 0 9992 2 47505 97.2353 170.2405 0006548 18.3553 341.7925 15.34152087292784 HAWK-2B 1 47508U 21006CZ 26124.06676822 .00007890 00000+0 24073-3 0 9997 2 47508 97.2223 168.3220 0007000 16.2592 343.8874 15.34168065292734 HAWK-3B 1 48931U 21059BE 26124.53784058 .00040195 00000+0 39168-3 0 9995 2 48931 97.6686 317.2373 0006173 126.6542 233.5286 15.66123576271010 HAWK-3C 1 48948U 21059BX 26124.53757029 .00041090 00000+0 40045-3 0 9992 2 48948 97.6822 322.8449 0006545 126.9966 233.1893 15.66112889271017 HAWK-3A 1 48957U 21059CG 26124.53742640 .00040130 00000+0 39124-3 0 9995 2 48957 97.6763 320.0857 0006189 126.9252 233.2575 15.66111685271017 HAWK-5C 1 52754U 22057Y 26124.48324253 .00019219 00000+0 34637-3 0 9992 2 52754 97.6540 281.4087 0004119 213.9680 146.1307 15.49827656219579 HAWK-5B 1 52756U 22057AA 26124.48308889 .00019370 00000+0 34896-3 0 9996 2 52756 97.6549 279.7520 0004394 210.9518 149.1474 15.49834675219571 HAWK-5A 1 52757U 22057AB 26124.48285739 .00019459 00000+0 35056-3 0 9992 2 52757 97.6544 280.5854 0004580 213.0573 147.0392 15.49832713219576 HAWK-6B 1 55324U 23011A 26124.63468837 .00005477 00000+0 23923-3 0 9990 2 55324 40.4989 246.0223 0001638 75.8301 284.2690 15.22550622181209 HAWK-6C 1 55326U 23011C 26124.63404343 .00005030 00000+0 22036-3 0 9993 2 55326 40.4977 242.8695 0002128 56.0055 304.0956 15.22551409181218 HAWK-6A 1 55327U 23011D 26124.63408474 .00004987 00000+0 21858-3 0 9994 2 55327 40.4988 244.4898 0001846 50.0198 310.0773 15.22549624181212 HAWK-7A 1 56191U 23054P 26124.27399488 .00005235 00000+0 20085-3 0 9993 2 56191 97.2751 12.7304 0003162 157.0718 203.0663 15.26901471170322 HAWK-7B 1 56193U 23054R 26124.47054101 .00005803 00000+0 22232-3 0 9994 2 56193 97.2777 11.1701 0002250 152.9712 207.1645 15.26905395170358 HAWK-7C 1 56200U 23054Y 26124.47043589 .00005688 00000+0 21797-3 0 9997 2 56200 97.2754 11.9525 0002742 146.8490 213.2921 15.26904418170355